FW5692 Weather Reports


Display with metric or nautical units.
time (UTC)temp
F
wind
direction
speed
MPH
gust
MPH
rain 1hr
in
rain 24hr
in
rain mn
in
humidity
%
barometer
mb
20260508064608 62 266 9.0 26.0 0.10 0.35 0.35 87 1008.3
20260508064108 62 239 9.0 26.0 0.13 0.35 0.35 87 1009.4
20260508063613 63 211 8.0 21.0 0.16 0.35 0.35 88 1009.5
20260508063109 63 235 8.0 21.0 0.17 0.35 0.35 90 1009.8
20260508062609 64 285 9.0 21.0 0.17 0.34 0.34 90 1009.5
20260508062109 64 269 9.0 20.0 0.20 0.34 0.34 91 1009.1
20260508061608 64 288 9.0 20.0 0.21 0.33 0.33 91 1008.7
20260508061109 65 276 10.0 19.0 0.24 0.32 0.32 90 1009.0
20260508060609 66 255 9.0 21.0 0.24 0.31 0.31 89 1008.8
20260508060108 68 250 5.0 21.0 0.22 0.30 0.30 88 1008.5
20260508055602 69 291 3.0 8.0 0.17 0.25 0.26 90 1008.5
20260508055108 69 303 3.0 8.0 0.17 0.25 0.25 90 1008.5
20260508054603 69 309 3.0 7.0 0.17 0.24 0.24 89 1008.3
20260508054103 69 352 3.0 9.0 0.13 0.21 0.22 88 1008.2
20260508053605 69 313 4.0 10.0 0.11 0.19 0.20 88 1008.3
20260508053100 69 48 5.0 10.0 0.10 0.18 0.18 87 1008.5
20260508052600 70 338 5.0 11.0 0.09 0.17 0.17 86 1008.4
20260508052101 70 326 4.0 11.0 0.06 0.14 0.14 85 1008.2
20260508051600 71 325 4.0 10.0 0.04 0.12 0.13 84 1007.9
20260508051100 71 307 5.0 10.0 0.00 0.08 0.08 83 1007.4
20260508050559 71 290 4.0 10.0 0.00 0.08 0.08 83 1007.1
20260508050100 71 356 4.0 8.0 0.00 0.08 0.08 83 1007.0
20260508045559 71 337 4.0 10.0 0.00 0.08 0.08 83 1007.0
20260508045103 70 317 3.0 10.0 0.01 0.08 0.08 84 1007.0
20260508044601 70 35 3.0 5.0 0.02 0.08 0.08 86 1007.0
20260508044313 69 56 3.0 5.0 0.02 0.08 0.08 87 1007.1
20260508043544 69 49 2.0 5.0 0.02 0.08 0.08 88 1006.9
20260508043039 69 46 2.0 5.0 0.02 0.08 0.08 87 1007.0
20260508042750 69 75 3.0 5.0 0.02 0.08 0.08 86 1007.0
20260508042027 69 70 2.0 5.0 0.02 0.08 0.08 86 1007.0
20260508041520 70 98 2.0 7.0 0.02 0.08 0.08 85 1007.1
20260508041241 70 81 3.0 7.0 0.04 0.08 0.08 85 1007.0
20260508040509 70 53 3.0 9.0 0.07 0.08 0.08 84 1007.1
20260508040231 70 91 3.0 9.0 0.08 0.08 0.08 83 1007.3
20260508035455 70 89 4.0 12.0 0.08 0.08 0.08 83 1007.5
20260508034949 71 32 4.0 12.0 0.06 0.06 0.07 81 1007.6
20260508034442 71 297 5.0 11.0 0.06 0.06 0.06 80 1007.6
20260508033936 71 301 5.0 11.0 0.06 0.06 0.06 80 1007.7
20260508033431 71 259 6.0 13.0 0.06 0.06 0.06 81 1007.7
20260508032924 71 320 6.0 14.0 0.06 0.06 0.06 80 1007.5
20260508032642 71 316 4.0 14.0 0.06 0.06 0.06 80 1007.6
20260508031912 71 335 5.0 17.0 0.06 0.06 0.06 80 1007.8
20260508031408 72 249 8.0 19.0 0.06 0.06 0.06 77 1007.7
20260508030905 73 314 9.0 20.0 0.03 0.03 0.03 75 1007.7
20260508030404 75 274 8.0 20.0 0.00 0.00 0.00 69 1008.0
20260508025902 77 194 9.0 19.0 0.00 0.00 0.00 66 1008.1
20260508025402 78 205 9.0 20.0 0.00 0.00 0.00 64 1007.7
20260508024914 79 248 9.0 20.0 0.00 0.00 0.00 62 1007.9
20260508024359 80 272 11.0 27.0 0.00 0.00 0.00 61 1007.9
20260508024353 81 281 14.0 38.0 0.00 0.00 0.00 59 1007.6
20260508023624 84 290 12.0 38.0 0.00 0.00 0.00 54 1007.6
20260508023119 85 338 7.0 19.0 0.00 0.00 0.00 56 1005.5
20260508022619 85 259 6.0 14.0 0.00 0.00 0.00 56 1005.5
20260508021856 85 281 8.0 15.0 0.00 0.00 0.00 55 1005.3
20260508021357 85 324 8.0 19.0 0.00 0.00 0.00 55 1005.2
20260508020857 85 330 9.0 19.0 0.00 0.00 0.00 55 1005.2
20260508020356 85 325 8.0 19.0 0.00 0.00 0.00 55 1004.8
20260508020120 85 131 8.0 19.0 0.00 0.00 0.00 55 1004.7
20260508015402 85 340 7.0 17.0 0.00 0.00 0.00 55 1004.9
20260508014854 85 319 8.0 17.0 0.00 0.00 0.00 55 1005.0
20260508014349 85 53 8.0 16.0 0.00 0.00 0.00 55 1005.1
20260508013842 85 334 6.0 16.0 0.00 0.00 0.00 55 1005.3
20260508013337 85 278 5.0 16.0 0.00 0.00 0.00 55 1005.1
20260508013055 84 3 4.0 12.0 0.00 0.00 0.00 56 1005.4
20260508012325 83 18 4.0 12.0 0.00 0.00 0.00 57 1005.3
20260508011819 82 19 3.0 12.0 0.00 0.00 0.00 59 1005.3
20260508011536 80 38 2.0 6.0 0.00 0.00 0.00 63 1005.4
20260508011035 80 51 2.0 6.0 0.00 0.00 0.00 64 1005.3
20260508010743 80 103 3.0 7.0 0.00 0.00 0.00 64 1005.3
20260508010019 80 68 2.0 7.0 0.00 0.00 0.00 64 1005.3
20260508005250 80 76 2.0 6.0 0.00 0.00 0.00 64 1005.4
20260508005009 80 83 2.0 6.0 0.00 0.00 0.00 65 1005.4
20260508004243 80 69 2.0 5.0 0.00 0.00 0.00 64 1005.4
20260508003731 80 69 1.0 3.0 0.00 0.00 0.00 64 1005.5
20260508003715 80 88 1.0 5.0 0.00 0.00 0.00 64 1005.5
20260508002719 80 77 2.0 5.0 0.00 0.00 0.00 65 1005.4
20260508002213 79 115 2.0 4.0 0.00 0.00 0.00 65 1005.3
20260508001707 79 82 2.0 6.0 0.00 0.00 0.00 65 1005.4
20260508001200 79 29 3.0 6.0 0.00 0.00 0.00 65 1005.3
20260508000656 79 13 3.0 9.0 0.00 0.00 0.00 66 1005.1
20260508000413 80 53 4.0 9.0 0.00 0.00 0.00 65 1005.3
20260507235642 80 56 3.0 7.0 0.00 0.00 0.00 65 1005.2
20260507235138 80 53 2.0 7.0 0.00 0.00 0.00 64 1005.2
20260507234631 81 79 2.0 5.0 0.00 0.00 0.00 63 1005.3
20260507234124 81 95 2.0 6.0 0.00 0.00 0.00 63 1005.5
20260507233114 80 84 1.0 3.0 0.00 0.00 0.00 64 1005.6
20260507232612 80 128 1.0 4.0 0.00 0.00 0.00 65 1005.7
20260507232102 80 88 1.0 4.0 0.00 0.00 0.00 65 1005.7
20260507231554 80 93 1.0 4.0 0.00 0.00 0.00 65 1005.7
20260507231309 80 80 1.0 3.0 0.00 0.00 0.00 65 1005.7
20260507230538 80 79 1.0 3.0 0.00 0.00 0.00 66 1005.7
20260507230032 80 75 1.0 3.0 0.00 0.00 0.00 67 1005.7
20260507225528 80 75 1.0 3.0 0.00 0.00 0.00 67 1005.8
20260507225033 80 65 2.0 4.0 0.00 0.00 0.00 66 1005.7
20260507224520 80 56 1.0 4.0 0.00 0.00 0.00 66 1005.7
20260507224304 81 76 1.0 1.0 0.00 0.00 0.00 65 1005.6
20260507223625 81 76 1.0 3.0 0.00 0.00 0.00 65 1005.7
20260507223119 81 0.0 0.0 0.00 0.00 0.00 65 1005.5
20260507222632 81 0.0 0.0 0.00 0.00 0.00 65 1005.5
20260507213159 84 60 2.0 2.0 0.00 0.00 0.00 59 1006.4
20260507212527 85 60 3.0 5.0 0.00 0.00 0.00 58 1006.5
20260507212025 85 72 2.0 6.0 0.00 0.00 0.00 57 1006.4
20260507211528 85 33 2.0 6.0 0.00 0.00 0.00 56 1006.4
20260507211247 86 22 1.0 6.0 0.00 0.00 0.00 56 1006.5
20260507210533 86 74 1.0 4.0 0.00 0.00 0.00 56 1006.4
20260507210027 86 321 0.0 3.0 0.00 0.00 0.00 56 1006.5
20260507205527 86 79 0.0 2.0 0.00 0.00 0.00 56 1006.5
20260507205031 86 80 1.0 6.0 0.00 0.00 0.00 56 1006.5
20260507205015 86 44 3.0 8.0 0.00 0.00 0.00 57 1006.4
20260507204030 86 59 3.0 8.0 0.00 0.00 0.00 57 1006.4
20260507203534 85 17 3.0 6.0 0.00 0.00 0.00 57 1006.4
20260507203026 86 315 3.0 3.0 0.00 0.00 0.00 57 1006.4
20260507202532 86 0.0 0.0 0.00 0.00 0.00 56 1006.2
20260507201428 87 53 2.0 10.0 0.00 0.00 0.00 55 1006.4
20260507200706 87 73 2.0 4.0 0.00 0.00 0.00 55 1006.3
20260507200203 87 79 1.0 4.0 0.00 0.00 0.00 55 1006.4
20260507195704 87 79 1.0 4.0 0.00 0.00 0.00 54 1006.4
20260507195202 87 80 1.0 5.0 0.00 0.00 0.00 54 1006.4
20260507194701 88 50 2.0 5.0 0.00 0.00 0.00 53 1006.4
20260507194428 88 0.0 0.0 0.00 0.00 0.00 52 1006.5
20260507193705 88 0.0 0.0 0.00 0.00 0.00 52 1006.5
20260507191854 88 313 3.0 10.0 0.00 0.00 0.00 51 1006.7
20260507191352 88 332 4.0 10.0 0.00 0.00 0.00 51 1006.8
20260507190852 88 342 4.0 10.0 0.00 0.00 0.00 50 1006.7
20260507190352 88 331 4.0 11.0 0.00 0.00 0.00 50 1006.5
20260507185852 89 316 3.0 11.0 0.00 0.00 0.00 50 1006.6
20260507185351 89 31 4.0 12.0 0.00 0.00 0.00 50 1006.6
20260507184854 89 354 5.0 12.0 0.00 0.00 0.00 50 1006.7
20260507184353 89 338 5.0 15.0 0.00 0.00 0.00 50 1006.7
20260507183850 89 304 4.0 15.0 0.00 0.00 0.00 50 1006.8
20260507183350 89 326 2.0 7.0 0.00 0.00 0.00 51 1006.6
20260507183109 89 348 3.0 7.0 0.00 0.00 0.00 50 1006.6
20260507182347 89 345 4.0 10.0 0.00 0.00 0.00 50 1006.6
20260507181846 89 337 5.0 10.0 0.00 0.00 0.00 50 1006.5
20260507181346 89 345 4.0 10.0 0.00 0.00 0.00 50 1006.5
20260507181112 89 291 3.0 6.0 0.00 0.00 0.00 50 1006.5
20260507180346 90 326 3.0 10.0 0.00 0.00 0.00 50 1006.4
20260507175846 90 323 4.0 10.0 0.00 0.00 0.00 49 1006.3
20260507175610 90 326 4.0 13.0 0.00 0.00 0.00 50 1006.4
20260507174846 90 21 5.0 13.0 0.00 0.00 0.00 50 1006.4
20260507174346 90 32 5.0 12.0 0.00 0.00 0.00 50 1006.4
20260507173846 90 313 5.0 12.0 0.00 0.00 0.00 49 1006.4
20260507173345 90 19 6.0 17.0 0.00 0.00 0.00 49 1006.5
20260507172845 90 316 7.0 20.0 0.00 0.00 0.00 50 1006.5
20260507172346 90 326 8.0 20.0 0.00 0.00 0.00 49 1006.5
20260507171845 90 323 9.0 19.0 0.00 0.00 0.00 49 1006.4
20260507171345 90 29 9.0 19.0 0.00 0.00 0.00 49 1006.4
20260507171333 90 324 9.0 14.0 0.00 0.00 0.00 50 1006.4
20260507170400 90 0.0 0.0 0.00 0.00 0.00 50 1006.5